Fort Yukon, AK

12:20 PM AKST on February 25, 2017 (GMT -0900)
Fort Yukon

Weather History for PFYU - March, 2015

Change the Weather History Date:

Monday, March 23, 2015

  Actual Average Record
Temperature  
Mean Temperature 8 °F -  
Max Temperature 26 °F 12 °F 39 °F (1998)
Min Temperature -9 °F -5 °F -23 °F (2007)
Degree Days  
Heating Degree Days 56    
Moisture  
Dew Point -2 °F    
Average Humidity 64    
Maximum Humidity 85    
Minimum Humidity 31    
Precipitation  
Precipitation 0.00 in - - ()
Sea Level Pressure  
Sea Level Pressure 30.03 in    
Wind  
Wind Speed 1 mph (NE)    
Max Wind Speed 6 mph    
Max Gust Speed -    
Visibility 10 miles    
Events      
Averages and records for this station are not official NWS values.
T = Trace of Precipitation, MM = Missing Value Source: NWS Daily Summary

Daily Weather History Graph

Daily Weather History Graph

Search for Another Location

Airport or City:

Trip Planner

Search our weather history database for the weather conditions in past years. The results will help you decide how hot, cold, wet, or windy it might be!

Date:

Astronomy

Mar. 23, 2015 Rise Set
Actual Time 7:29 AM AKDT 8:07 PM AKDT
Civil Twilight 6:36 AM AKDT 9:00 PM AKDT
Nautical Twilight 5:30 AM AKDT 10:07 PM AKDT
Astronomical Twilight 4:08 AM AKDT 11:32 PM AKDT
Moon 8:21 AM AKDT (3/23) 12:33 AM AKDT (3/23)
Length of Visible Light 14h 24m
Length of Day
12h 38m
Waxing Crescent, 16% of the Moon is Illuminated
Mar 23
Waxing Crescent
Mar 26
First Quarter
Apr 4
Full
Apr 11
Last Quarter
Apr 18
New

Hourly Weather History & Observations

Time (AKDT) Temp. Windchill Dew Point Humidity Pressure Visibility Wind Dir Wind Speed Gust Speed Precip Events Conditions
12:16 AM -0.4 °F - -7.6 °F 72% 30.00 in 10.0 mi Calm Calm - N/A   Clear
12:36 AM -0.4 °F - -7.6 °F 72% 30.00 in 10.0 mi Calm Calm - N/A   Clear
12:56 AM -2.2 °F - -7.6 °F 78% 30.01 in 10.0 mi Calm Calm - N/A   Clear
1:16 AM -2.2 °F - -9.4 °F 71% 30.01 in 10.0 mi Calm Calm - N/A   Clear
1:36 AM -0.4 °F -8.3 °F -5.8 °F 78% 30.01 in 10.0 mi NE 3.5 mph - N/A   Clear
1:56 AM -2.2 °F - -9.4 °F 71% 30.01 in 10.0 mi Calm Calm - N/A   Clear
2:16 AM -4.0 °F - -11.2 °F 71% 30.01 in 10.0 mi Calm Calm - N/A   Clear
2:36 AM -5.8 °F - -11.2 °F 77% 30.01 in 10.0 mi Calm Calm - N/A   Clear
2:56 AM -5.8 °F -16.7 °F -9.4 °F 84% 30.01 in 10.0 mi NE 4.6 mph - N/A   Clear
3:16 AM -4.0 °F - -13.0 °F 65% 30.01 in 10.0 mi Calm Calm - N/A   Clear
3:36 AM -4.0 °F - -7.6 °F 85% 30.01 in 10.0 mi Calm Calm - N/A   Clear
3:56 AM -5.8 °F - -13.0 °F 71% 30.01 in 10.0 mi Calm Calm - N/A   Clear
4:16 AM -5.8 °F -16.7 °F -11.2 °F 77% 30.01 in 10.0 mi NNE 4.6 mph - N/A   Clear
4:36 AM -2.2 °F - -5.8 °F 85% 30.01 in 10.0 mi Calm Calm - N/A   Clear
4:56 AM -0.4 °F -8.3 °F -5.8 °F 78% 30.02 in 10.0 mi NE 3.5 mph - N/A   Clear
5:16 AM -2.2 °F - -7.6 °F 78% 30.02 in 10.0 mi Calm Calm - N/A   Clear
5:36 AM -4.0 °F - -11.2 °F 71% 30.02 in 10.0 mi Calm Calm - N/A   Clear
5:56 AM -7.6 °F - -13.0 °F 77% 30.02 in 10.0 mi Calm Calm - N/A   Clear
6:16 AM -7.6 °F - -14.8 °F 71% 30.03 in 10.0 mi Calm Calm - N/A   Clear
6:36 AM -7.6 °F - -14.8 °F 71% 30.03 in 10.0 mi Calm Calm - N/A   Clear
6:56 AM -5.8 °F -16.7 °F -11.2 °F 77% 30.03 in 10.0 mi NNE 4.6 mph - N/A   Clear
7:16 AM -4.0 °F -14.6 °F -7.6 °F 85% 30.03 in 10.0 mi NNE 4.6 mph - N/A   Clear
7:36 AM -4.0 °F -12.4 °F -9.4 °F 78% 30.03 in 10.0 mi NE 3.5 mph - N/A   Clear
7:56 AM -2.2 °F -10.4 °F -7.6 °F 78% 30.03 in 10.0 mi NE 3.5 mph - N/A   Clear
8:16 AM -4.0 °F -14.6 °F -9.4 °F 78% 30.04 in 10.0 mi NE 4.6 mph - N/A   Clear
8:36 AM -2.2 °F -10.4 °F -7.6 °F 78% 30.04 in 10.0 mi NNE 3.5 mph - N/A   Clear
8:56 AM -0.4 °F -10.4 °F -7.6 °F 72% 30.04 in 10.0 mi NE 4.6 mph - N/A   Clear
9:16 AM -0.4 °F -8.3 °F -4.0 °F 85% 30.04 in 10.0 mi NE 3.5 mph - N/A   Clear
9:36 AM 1.4 °F -8.3 °F -2.2 °F 85% 30.05 in 10.0 mi NE 4.6 mph - N/A   Clear
9:56 AM 3.2 °F -7.8 °F -2.2 °F 78% 30.05 in 10.0 mi NE 5.8 mph - N/A   Clear
10:16 AM 5.0 °F -2.1 °F -0.4 °F 78% 30.05 in 10.0 mi NE 3.5 mph - N/A   Clear
10:36 AM 6.8 °F -0.1 °F -0.4 °F 72% 30.05 in 10.0 mi NNE 3.5 mph - N/A   Clear
10:56 AM 8.6 °F 0.1 °F -0.4 °F 67% 30.05 in 0.2 mi NNE 4.6 mph - N/A   Clear
11:16 AM 10.4 °F - -0.4 °F 62% 30.05 in 10.0 mi Calm Calm - N/A   Clear
11:36 AM 12.2 °F - 1.4 °F 62% 30.05 in 10.0 mi Calm Calm - N/A   Clear
11:56 AM 12.2 °F - 1.4 °F 62% 30.05 in 10.0 mi Calm Calm - N/A   Clear
12:16 PM 15.8 °F - 3.2 °F 58% 30.05 in 10.0 mi Calm Calm - N/A   Clear
12:36 PM 17.6 °F - 3.2 °F 53% 30.05 in 10.0 mi Calm Calm - N/A   Clear
12:56 PM 17.6 °F 12.3 °F 5.0 °F 58% 30.05 in 10.0 mi NNE 3.5 mph - N/A   Clear
1:16 PM 19.4 °F - 5.0 °F 54% 30.05 in 10.0 mi Calm Calm - N/A   Clear
1:36 PM 19.4 °F 14.3 °F 5.0 °F 54% 30.05 in 10.0 mi North 3.5 mph - N/A   Clear
1:56 PM 21.2 °F - 6.8 °F 54% 30.05 in 10.0 mi Calm Calm - N/A   Clear
2:16 PM 23.0 °F - 6.8 °F 50% 30.05 in 10.0 mi Calm Calm - N/A   Clear
2:36 PM 23.0 °F 17.0 °F 6.8 °F 50% 30.05 in 10.0 mi NNW 4.6 mph - N/A   Clear
2:56 PM 24.8 °F - 6.8 °F 46% 30.04 in 10.0 mi Calm Calm - N/A   Clear
3:16 PM 24.8 °F - 6.8 °F 46% 30.05 in 10.0 mi Calm Calm - N/A   Clear
3:36 PM 24.8 °F 20.5 °F 6.8 °F 46% 30.04 in 10.0 mi West 3.5 mph - N/A   Clear
3:56 PM 24.8 °F - 6.8 °F 46% 30.04 in 10.0 mi Calm Calm - N/A   Clear
4:16 PM 26.6 °F - 6.8 °F 43% 30.03 in 10.0 mi Calm Calm - N/A   Clear
4:36 PM 26.6 °F - 8.6 °F 47% 30.03 in 10.0 mi Calm Calm - N/A   Clear
4:56 PM 26.6 °F - 8.6 °F 47% 30.03 in 10.0 mi Calm Calm - N/A   Clear
5:16 PM 26.6 °F 21.2 °F 6.8 °F 43% 30.03 in 10.0 mi North 4.6 mph - N/A   Clear
5:36 PM 24.8 °F 19.1 °F 6.8 °F 46% 30.03 in 10.0 mi NNE 4.6 mph - N/A   Clear
5:56 PM 24.8 °F 20.5 °F 6.8 °F 46% 30.03 in 10.0 mi ENE 3.5 mph - N/A   Clear
6:16 PM 24.8 °F 20.5 °F 6.8 °F 46% 30.03 in 10.0 mi NE 3.5 mph - N/A   Clear
6:36 PM 24.8 °F - 6.8 °F 46% 30.03 in 10.0 mi Calm Calm - N/A   Clear
6:56 PM 24.8 °F 19.1 °F 5.0 °F 43% 30.03 in 10.0 mi ENE 4.6 mph - N/A   Clear
7:16 PM 24.8 °F 20.5 °F 6.8 °F 46% 30.03 in 10.0 mi NE 3.5 mph - N/A   Clear
7:36 PM 23.0 °F - 5.0 °F 46% 30.03 in 10.0 mi Calm Calm - N/A   Clear
7:56 PM 23.0 °F - 5.0 °F 46% 30.03 in 10.0 mi Calm Calm - N/A   Clear
8:16 PM 17.6 °F - 1.4 °F 49% 30.03 in 10.0 mi Calm Calm - N/A   Clear
8:36 PM 15.8 °F - 3.2 °F 58% 30.03 in 10.0 mi Calm Calm - N/A   Clear
8:56 PM 14.0 °F - 3.2 °F 62% 30.03 in 10.0 mi Calm Calm - N/A   Clear
9:16 PM 10.4 °F - 3.2 °F 73% 30.03 in 10.0 mi Calm Calm - N/A   Clear
9:36 PM 8.6 °F - -0.4 °F 67% 30.03 in 10.0 mi Calm Calm - N/A   Clear
9:56 PM 6.8 °F - -0.4 °F 72% 30.03 in 10.0 mi Calm Calm - N/A   Clear
10:16 PM 6.8 °F - -2.2 °F 67% 30.03 in 10.0 mi Calm Calm - N/A   Clear
10:36 PM 5.0 °F - -2.2 °F 72% 30.03 in 10.0 mi Calm Calm - N/A   Clear
10:56 PM 6.8 °F -0.1 °F -0.4 °F 72% 30.04 in 10.0 mi NE 3.5 mph - N/A   Clear
11:16 PM 6.8 °F -2.0 °F -0.4 °F 72% 30.04 in 10.0 mi NE 4.6 mph - N/A   Clear
11:36 PM 8.6 °F 0.1 °F 1.4 °F 73% 30.04 in 10.0 mi NE 4.6 mph - N/A   Clear
11:56 PM 8.6 °F 0.1 °F -0.4 °F 67% 30.05 in 10.0 mi NNE 4.6 mph - N/A   Clear